,,PA_Meas_PMT16A,,PR_Meas_QMR101_102,,RH_Meas_QMH101,,SR_Meas_QMS101,,TA_Meas_QMH101,,GenWind,,GenWind,
time,status,PA,status,PR,status,RH,status,SR,status,TA,status,DirAvg,status,SpdAvg,
2009-12-16, 00:00:04,VALID,919.526,VALID,0,VALID,95.4147,VALID,0,VALID,20.1693,VALID,141,VALID,0.00585938,
2009-12-16, 00:01:04,VALID,919.545,VALID,0,VALID,95.2927,VALID,0,VALID,20.1483,VALID,141,VALID,0,
2009-12-16, 00:02:04,VALID,919.52,VALID,0,VALID,95.3003,VALID,0,VALID,20.1693,VALID,141,VALID,0,
2009-12-16, 00:03:04,VALID,919.499,VALID,0,VALID,95.003,VALID,0,VALID,20.1303,VALID,141,VALID,0,
2009-12-16, 00:04:04,VALID,919.487,VALID,0,VALID,94.7591,VALID,0,VALID,20.0703,VALID,141,VALID,0,
2009-12-16, 00:05:04,VALID,919.505,VALID,0,VALID,94.8734,VALID,0,VALID,20.0313,VALID,141,VALID,0,
2009-12-16, 00:06:04,VALID,919.509,VALID,0,VALID,95.1783,VALID,0,VALID,20.0118,VALID,141,VALID,0,
2009-12-16, 00:07:04,VALID,919.526,VALID,0,VALID,95.4452,VALID,0,VALID,19.9923,VALID,141,VALID,0,
2009-12-16, 00:08:04,VALID,919.494,VALID,0,VALID,95.8263,VALID,0,VALID,20.0328,VALID,141,VALID,0.240234,
2009-12-16, 00:09:04,VALID,919.466,VALID,0,VALID,96.1389,VALID,0,VALID,20.0718,VALID,141,VALID,0.3375,
2009-12-16, 00:10:04,VALID,919.467,VALID,0,VALID,96.2228,VALID,0,VALID,20.0718,VALID,141,VALID,0,
2009-12-16, 00:11:04,VALID,919.464,VALID,0,VALID,96.1541,VALID,0,VALID,20.0508,VALID,141,VALID,0.190625,
2009-12-16, 00:12:04,VALID,919.464,VALID,0,VALID,96.1236,VALID,0,VALID,20.0703,VALID,141,VALID,0.0109375,
2009-12-16, 00:13:04,VALID,919.449,VALID,0,VALID,96.0322,VALID,0,VALID,20.0718,VALID,141,VALID,0,
2009-12-16, 00:14:04,VALID,919.434,VALID,0,VALID,95.8568,VALID,0,VALID,20.0313,VALID,141,VALID,0,
2009-12-16, 00:15:04,VALID,919.475,VALID,0,VALID,95.7425,VALID,0,VALID,20.0118,VALID,141,VALID,0,
2009-12-16, 00:16:04,VALID,919.455,VALID,0,VALID,95.5519,VALID,0,VALID,19.9923,VALID,141,VALID,0.00234375,
2009-12-16, 00:17:04,VALID,919.462,VALID,0,VALID,95.529,VALID,0,VALID,19.9923,VALID,141,VALID,0.399219,
2009-12-16, 00:18:04,VALID,919.44,VALID,0,VALID,95.7425,VALID,0,VALID,20.0328,VALID,141,VALID,0.483203,
2009-12-16, 00:19:04,VALID,919.466,VALID,0,VALID,95.7425,VALID,0,VALID,19.9923,VALID,141,VALID,0.575781,
2009-12-16, 00:20:04,VALID,919.438,VALID,0,VALID,95.8187,VALID,0,VALID,19.9923,VALID,141,VALID,0.670313,
2009-12-16, 00:21:04,VALID,919.419,VALID,0,VALID,95.9483,VALID,0,VALID,19.9938,VALID,141,VALID,0.783203,
2009-12-16, 00:22:04,VALID,919.412,VALID,0,VALID,96.055,VALID,0,VALID,19.9533,VALID,141,VALID,0.691406,
2009-12-16, 00:23:04,VALID,919.402,VALID,0,VALID,96.1694,VALID,0,VALID,19.9548,VALID,141,VALID,0.749609,
2009-12-16, 00:24:04,VALID,919.344,VALID,0,VALID,96.2837,VALID,0,VALID,19.9353,VALID,141,VALID,0.660156,
2009-12-16, 00:25:04,VALID,919.343,VALID,0,VALID,96.3219,VALID,0,VALID,19.8948,VALID,141,VALID,0.429688,
2009-12-16, 00:26:04,VALID,919.344,VALID,0,VALID,96.3981,VALID,0,VALID,19.8963,VALID,141,VALID,0.456641,
2009-12-16, 00:27:04,VALID,919.353,VALID,0,VALID,96.4896,VALID,0,VALID,19.8753,VALID,141,VALID,0.567969,
2009-12-16, 00:28:04,VALID,919.319,VALID,0,VALID,96.5124,VALID,0,VALID,19.8768,VALID,141,VALID,0.513672,
2009-12-16, 00:29:04,VALID,919.312,VALID,0,VALID,96.5506,VALID,0,VALID,19.8363,VALID,141,VALID,0.446484,
2009-12-16, 00:30:04,VALID,919.297,VALID,0,VALID,96.5963,VALID,0,VALID,19.8363,VALID,141,VALID,0.561719,
2009-12-16, 00:31:04,VALID,919.286,VALID,0,VALID,96.6649,VALID,0,VALID,19.8378,VALID,141,VALID,0.542578,
2009-12-16, 00:32:04,VALID,919.251,VALID,0,VALID,96.7335,VALID,0,VALID,19.8378,VALID,141,VALID,0.488281,
2009-12-16, 00:33:04,VALID,919.26,VALID,0,VALID,96.7716,VALID,0,VALID,19.8378,VALID,141,VALID,0.636719,
2009-12-16, 00:34:04,VALID,919.248,VALID,0,VALID,96.8403,VALID,0,VALID,19.8783,VALID,141,VALID,0.497266,
2009-12-16, 00:35:04,VALID,919.24,VALID,0,VALID,96.8707,VALID,0,VALID,19.8573,VALID,141,VALID,0.673437,
2009-12-16, 00:36:04,VALID,919.277,VALID,0,VALID,96.9241,VALID,0,VALID,19.9368,VALID,141,VALID,0.569922,
2009-12-16, 00:37:04,VALID,919.253,VALID,0,VALID,96.8326,VALID,0,VALID,19.8768,VALID,141,VALID,0.353906,
2009-12-16, 00:38:04,VALID,919.249,VALID,0,VALID,96.5353,VALID,0,VALID,19.7388,VALID,141,VALID,0.258203,
2009-12-16, 00:39:04,VALID,919.239,VALID,0,VALID,96.4667,VALID,0,VALID,19.6638,VALID,141,VALID,0.344531,
2009-12-16, 00:40:04,VALID,919.261,VALID,0,VALID,96.6192,VALID,0,VALID,19.6638,VALID,141,VALID,0.271094,
2009-12-16, 00:41:04,VALID,919.246,VALID,0,VALID,96.7869,VALID,0,VALID,19.6818,VALID,141,VALID,0.224219,
2009-12-16, 00:42:04,VALID,919.247,VALID,0,VALID,96.8326,VALID,0,VALID,19.7028,VALID,141,VALID,0.01875,
2009-12-16, 00:43:04,VALID,919.233,VALID,0,VALID,96.7183,VALID,0,VALID,19.6638,VALID,141,VALID,0.0703125,
2009-12-16, 00:44:04,VALID,919.234,VALID,0,VALID,96.7183,VALID,0,VALID,19.6443,VALID,141,VALID,0,
2009-12-16, 00:45:04,VALID,919.227,VALID,0,VALID,96.8326,VALID,0,VALID,19.6233,VALID,141,VALID,0,
2009-12-16, 00:46:04,VALID,919.201,VALID,0,VALID,96.8479,VALID,0,VALID,19.6218,VALID,141,VALID,0,
2009-12-16, 00:47:04,VALID,919.195,VALID,0,VALID,96.9241,VALID,0,VALID,19.6623,VALID,141,VALID,0,
2009-12-16, 00:48:04,VALID,919.18,VALID,0,VALID,96.9698,VALID,0,VALID,19.6608,VALID,141,VALID,0,
2009-12-16, 00:49:04,VALID,919.2,VALID,0,VALID,96.9775,VALID,0,VALID,19.7013,VALID,141,VALID,0,
2009-12-16, 00:50:04,VALID,919.195,VALID,0,VALID,96.9851,VALID,0,VALID,19.6998,VALID,141,VALID,0,
2009-12-16, 00:51:04,VALID,919.191,VALID,0,VALID,96.9851,VALID,0,VALID,19.6998,VALID,141,VALID,0,
2009-12-16, 00:52:04,VALID,919.166,VALID,0,VALID,97.0232,VALID,0,VALID,19.7208,VALID,141,VALID,0,
2009-12-16, 00:53:04,VALID,919.18,VALID,0,VALID,97.0156,VALID,0,VALID,19.7403,VALID,141,VALID,0,
2009-12-16, 00:54:04,VALID,919.16,VALID,0,VALID,96.9394,VALID,0,VALID,19.7403,VALID,141,VALID,0,
2009-12-16, 00:55:04,VALID,919.126,VALID,0,VALID,96.7259,VALID,0,VALID,19.6623,VALID,141,VALID,0,
2009-12-16, 00:56:04,VALID,919.112,VALID,0,VALID,96.642,VALID,0,VALID,19.5633,VALID,141,VALID,0,
2009-12-16, 00:57:04,VALID,919.081,VALID,0,VALID,96.5963,VALID,0,VALID,19.5663,VALID,141,VALID,0,
2009-12-16, 00:58:04,VALID,919.056,VALID,0,VALID,96.6878,VALID,0,VALID,19.5048,VALID,141,VALID,0,
2009-12-16, 00:59:04,VALID,919.064,VALID,0,VALID,96.8479,VALID,0,VALID,19.5258,VALID,141,VALID,0,
2009-12-16, 01:00:04,VALID,919.035,VALID,0,VALID,96.8174,VALID,0,VALID,19.5663,VALID,141,VALID,0,
2009-12-16, 01:01:04,VALID,919.029,VALID,0,VALID,96.8403,VALID,0,VALID,19.5063,VALID,141,VALID,0,
2009-12-16, 01:02:04,VALID,919.012,VALID,0,VALID,96.825,VALID,0,VALID,19.5063,VALID,141,VALID,0,
2009-12-16, 01:03:04,VALID,919.011,VALID,0,VALID,96.9394,VALID,0,VALID,19.5258,VALID,141,VALID,0,
2009-12-16, 01:04:04,VALID,918.986,VALID,0,VALID,97.0613,VALID,0,VALID,19.5843,VALID,141,VALID,0,
2009-12-16, 01:05:04,VALID,918.971,VALID,0,VALID,97.1147,VALID,0,VALID,19.6233,VALID,141,VALID,0,
2009-12-16, 01:06:04,VALID,918.94,VALID,0,VALID,97.0918,VALID,0,VALID,19.6428,VALID,141,VALID,0,
2009-12-16, 01:07:04,VALID,918.921,VALID,0,VALID,97.0918,VALID,0,VALID,19.6023,VALID,141,VALID,0,
2009-12-16, 01:08:05,VALID,918.903,VALID,0,VALID,97.1604,VALID,0,VALID,19.6413,VALID,141,VALID,0.239453,
2009-12-16, 01:09:05,VALID,918.867,VALID,0,VALID,97.1757,VALID,0,VALID,19.6818,VALID,141,VALID,0.356641,
2009-12-16, 01:10:05,VALID,918.872,VALID,0,VALID,97.1909,VALID,0,VALID,19.7013,VALID,141,VALID,0.373437,
2009-12-16, 01:11:05,VALID,918.842,VALID,0,VALID,97.1986,VALID,0,VALID,19.7208,VALID,141,VALID,0.348047,
2009-12-16, 01:12:05,VALID,918.835,VALID,0,VALID,97.2214,VALID,0,VALID,19.7403,VALID,141,VALID,0.338281,
2009-12-16, 01:13:05,VALID,918.817,VALID,0,VALID,97.2519,VALID,0,VALID,19.7583,VALID,141,VALID,0.383984,
2009-12-16, 01:14:05,VALID,918.83,VALID,0,VALID,97.2595,VALID,0,VALID,19.7778,VALID,141,VALID,0.458984,
2009-12-16, 01:15:05,VALID,918.763,VALID,0,VALID,97.2748,VALID,0,VALID,19.8183,VALID,141,VALID,0.382422,
2009-12-16, 01:16:05,VALID,918.771,VALID,0,VALID,97.2367,VALID,0,VALID,19.8378,VALID,141,VALID,0.373437,
2009-12-16, 01:17:05,VALID,918.771,VALID,0,VALID,97.2443,VALID,0,VALID,19.7973,VALID,141,VALID,0.344141,
2009-12-16, 01:18:05,VALID,918.715,VALID,0,VALID,97.1452,VALID,0,VALID,19.7583,VALID,141,VALID,0.480859,
2009-12-16, 01:19:05,VALID,918.711,VALID,0,VALID,97.2138,VALID,0,VALID,19.7388,VALID,141,VALID,0.659375,
2009-12-16, 01:20:05,VALID,918.682,VALID,0,VALID,97.3053,VALID,0,VALID,19.8168,VALID,141,VALID,0.721094,
2009-12-16, 01:21:05,VALID,918.659,VALID,0,VALID,97.3053,VALID,0,VALID,19.8168,VALID,141,VALID,0.498437,
2009-12-16, 01:22:05,VALID,918.664,VALID,0,VALID,97.2519,VALID,0,VALID,19.7793,VALID,141,VALID,0.614062,
2009-12-16, 01:23:05,VALID,918.626,VALID,0,VALID,97.3129,VALID,0,VALID,19.7793,VALID,141,VALID,0.897656,
2009-12-16, 01:24:05,VALID,918.615,VALID,0,VALID,97.3205,VALID,0,VALID,19.8183,VALID,141,VALID,0.803516,
2009-12-16, 01:25:05,VALID,918.572,VALID,0,VALID,97.3358,VALID,0,VALID,19.7778,VALID,141,VALID,0.896875,
2009-12-16, 01:26:05,VALID,918.557,VALID,0,VALID,97.351,VALID,0,VALID,19.8183,VALID,141,VALID,0.833984,
2009-12-16, 01:27:05,VALID,918.542,VALID,0,VALID,97.3434,VALID,0,VALID,19.7778,VALID,141,VALID,0.837891,
2009-12-16, 01:28:05,VALID,918.517,VALID,0,VALID,97.3663,VALID,0,VALID,19.7988,VALID,141,VALID,0.706641,
2009-12-16, 01:29:05,VALID,918.479,VALID,0,VALID,97.3663,VALID,0,VALID,19.8183,VALID,141,VALID,0.830469,
2009-12-16, 01:30:05,VALID,918.495,VALID,0,VALID,97.351,VALID,0,VALID,19.7973,VALID,141,VALID,1.00039,
2009-12-16, 01:31:05,VALID,918.474,VALID,0,VALID,97.3815,VALID,0,VALID,19.8183,VALID,141,VALID,0.898438,
2009-12-16, 01:32:05,VALID,918.439,VALID,0,VALID,97.3739,VALID,0,VALID,19.7778,VALID,141,VALID,0.419922,
2009-12-16, 01:33:05,VALID,918.45,VALID,0,VALID,97.3891,VALID,0,VALID,19.7988,VALID,141,VALID,0.967578,
2009-12-16, 01:34:05,VALID,918.419,VALID,0,VALID,97.3815,VALID,0,VALID,19.7778,VALID,141,VALID,0.676562,
2009-12-16, 01:35:05,VALID,918.413,VALID,0,VALID,97.3739,VALID,0,VALID,19.7583,VALID,141,VALID,0.796484,
2009-12-16, 01:36:05,VALID,918.424,VALID,0,VALID,97.3891,VALID,0,VALID,19.7778,VALID,141,VALID,1.22773,
2009-12-16, 01:37:05,VALID,918.441,VALID,0,VALID,97.3968,VALID,0,VALID,19.7778,VALID,141,VALID,0.664844,
2009-12-16, 01:38:05,VALID,918.425,VALID,0,VALID,97.4044,VALID,0,VALID,19.7778,VALID,141,VALID,0.589453,
2009-12-16, 01:39:05,VALID,918.431,VALID,0,VALID,97.4044,VALID,0,VALID,19.7778,VALID,141,VALID,0.669531,
2009-12-16, 01:40:05,VALID,918.434,VALID,0,VALID,97.4349,VALID,0,VALID,19.7778,VALID,141,VALID,0.4375,
2009-12-16, 01:41:05,VALID,918.434,VALID,0,VALID,97.4425,VALID,0,VALID,19.7988,VALID,141,VALID,0.383203,
2009-12-16, 01:42:05,VALID,918.393,VALID,0,VALID,97.4501,VALID,0,VALID,19.7973,VALID,141,VALID,1.10977,
2009-12-16, 01:43:05,VALID,918.394,VALID,0,VALID,97.4577,VALID,0,VALID,19.7778,VALID,141,VALID,0.709375,
2009-12-16, 01:44:05,VALID,918.387,VALID,0,VALID,97.4654,VALID,0,VALID,19.7988,VALID,141,VALID,1.15625,
2009-12-16, 01:45:05,VALID,918.36,VALID,0,VALID,97.4654,VALID,0,VALID,19.7973,VALID,141,VALID,0.359375,
2009-12-16, 01:46:05,VALID,918.341,VALID,0,VALID,97.473,VALID,0,VALID,19.7973,VALID,141,VALID,0.954687,
2009-12-16, 01:47:05,VALID,918.337,VALID,0,VALID,97.4882,VALID,0,VALID,19.8168,VALID,137,VALID,0.825,
2009-12-16, 01:48:05,VALID,918.318,VALID,0,VALID,97.4806,VALID,0,VALID,19.8168,VALID,137,VALID,0.884766,
2009-12-16, 01:49:05,VALID,918.32,VALID,0,VALID,97.5035,VALID,0,VALID,19.8363,VALID,137,VALID,0.866016,
2009-12-16, 01:50:05,VALID,918.302,VALID,0,VALID,97.4959,VALID,0,VALID,19.8363,VALID,137,VALID,0.853125,
2009-12-16, 01:51:05,VALID,918.292,VALID,0,VALID,97.4959,VALID,0,VALID,19.8573,VALID,137,VALID,0.603906,
2009-12-16, 01:52:05,VALID,918.268,VALID,0,VALID,97.4882,VALID,0,VALID,19.8378,VALID,137,VALID,0.845312,
2009-12-16, 01:53:05,VALID,918.256,VALID,0,VALID,97.4959,VALID,0,VALID,19.8363,VALID,137,VALID,0.677734,
2009-12-16, 01:54:05,VALID,918.212,VALID,0,VALID,97.4882,VALID,0,VALID,19.8168,VALID,137,VALID,0.560156,
2009-12-16, 01:55:05,VALID,918.218,VALID,0,VALID,97.5111,VALID,0,VALID,19.8168,VALID,137,VALID,0.166016,
2009-12-16, 01:56:05,VALID,918.202,VALID,0,VALID,97.4959,VALID,0,VALID,19.8573,VALID,137,VALID,0.197266,
2009-12-16, 01:57:05,VALID,918.216,VALID,0,VALID,97.4959,VALID,0,VALID,19.8573,VALID,137,VALID,0.283203,
2009-12-16, 01:58:05,VALID,918.194,VALID,0,VALID,97.4959,VALID,0,VALID,19.8168,VALID,137,VALID,0.360938,
2009-12-16, 01:59:05,VALID,918.208,VALID,0,VALID,97.5035,VALID,0,VALID,19.8378,VALID,137,VALID,0.763281,
2009-12-16, 02:00:05,VALID,918.181,VALID,0,VALID,97.4654,VALID,0,VALID,19.7973,VALID,137,VALID,0.469141,
2009-12-16, 02:01:05,VALID,918.183,VALID,0,VALID,97.5035,VALID,0,VALID,19.7778,VALID,137,VALID,0.201953,
2009-12-16, 02:02:05,VALID,918.192,VALID,0,VALID,97.5035,VALID,0,VALID,19.7973,VALID,137,VALID,0.555078,
2009-12-16, 02:03:05,VALID,918.159,VALID,0,VALID,97.4882,VALID,0,VALID,19.7583,VALID,137,VALID,0.532812,
2009-12-16, 02:04:05,VALID,918.177,VALID,0,VALID,97.5569,VALID,0,VALID,19.7973,VALID,137,VALID,0.746484,
2009-12-16, 02:05:05,VALID,918.167,VALID,0,VALID,97.5569,VALID,0,VALID,19.7973,VALID,137,VALID,0.689453,
2009-12-16, 02:06:05,VALID,918.156,VALID,0,VALID,97.5264,VALID,0,VALID,19.7778,VALID,137,VALID,0.666406,
2009-12-16, 02:07:05,VALID,918.141,VALID,0,VALID,97.5111,VALID,0,VALID,19.7583,VALID,137,VALID,0.657422,
2009-12-16, 02:08:05,VALID,918.112,VALID,0,VALID,97.5264,VALID,0,VALID,19.7793,VALID,137,VALID,0.800391,
2009-12-16, 02:09:05,VALID,918.125,VALID,0,VALID,97.5492,VALID,0,VALID,19.7583,VALID,137,VALID,0.726172,
2009-12-16, 02:10:05,VALID,918.1,VALID,0,VALID,97.4959,VALID,0,VALID,19.7388,VALID,137,VALID,0.692969,
2009-12-16, 02:11:05,VALID,918.112,VALID,0,VALID,97.5416,VALID,0,VALID,19.7583,VALID,137,VALID,0.782812,
2009-12-16, 02:12:05,VALID,918.105,VALID,0,VALID,97.534,VALID,0,VALID,19.7583,VALID,137,VALID,0.435547,
2009-12-16, 02:13:05,VALID,918.099,VALID,0,VALID,97.5187,VALID,0,VALID,19.7193,VALID,137,VALID,0.610156,
2009-12-16, 02:14:05,VALID,918.073,VALID,0,VALID,97.5187,VALID,0,VALID,19.7193,VALID,137,VALID,0.683594,
2009-12-16, 02:15:05,VALID,918.074,VALID,0,VALID,97.4882,VALID,0,VALID,19.6998,VALID,137,VALID,0.396875,
2009-12-16, 02:16:05,VALID,918.083,VALID,0,VALID,97.4654,VALID,0,VALID,19.6623,VALID,137,VALID,0.409375,
2009-12-16, 02:17:05,VALID,918.057,VALID,0,VALID,97.4959,VALID,0,VALID,19.6428,VALID,137,VALID,0.497656,
2009-12-16, 02:18:05,VALID,918.036,VALID,0,VALID,97.5187,VALID,0,VALID,19.6218,VALID,137,VALID,0.461719,
2009-12-16, 02:19:05,VALID,918.01,VALID,0,VALID,97.5721,VALID,0,VALID,19.6413,VALID,137,VALID,0.475,
2009-12-16, 02:20:05,VALID,918.006,VALID,0,VALID,97.6026,VALID,0,VALID,19.6803,VALID,137,VALID,0.527344,
2009-12-16, 02:21:05,VALID,918.038,VALID,0,VALID,97.6102,VALID,0,VALID,19.6998,VALID,137,VALID,0.569922,
2009-12-16, 02:22:05,VALID,918.016,VALID,0,VALID,97.5492,VALID,0,VALID,19.6998,VALID,137,VALID,0.00546875,
2009-12-16, 02:23:05,VALID,918.012,VALID,0,VALID,97.5721,VALID,0,VALID,19.7013,VALID,137,VALID,0,
2009-12-16, 02:24:05,VALID,917.988,VALID,0,VALID,97.5416,VALID,0,VALID,19.6818,VALID,137,VALID,0.110937,
2009-12-16, 02:25:05,VALID,918.03,VALID,0,VALID,97.5645,VALID,0,VALID,19.6803,VALID,137,VALID,0.330469,
2009-12-16, 02:26:05,VALID,918.002,VALID,0,VALID,97.5721,VALID,0,VALID,19.6803,VALID,137,VALID,0.407422,
2009-12-16, 02:27:05,VALID,918.006,VALID,0,VALID,97.5645,VALID,0,VALID,19.6998,VALID,137,VALID,0.335156,
2009-12-16, 02:28:05,VALID,917.975,VALID,0,VALID,97.5264,VALID,0,VALID,19.6818,VALID,137,VALID,0.378516,
2009-12-16, 02:29:05,VALID,917.984,VALID,0,VALID,97.4806,VALID,0,VALID,19.6023,VALID,137,VALID,0.443359,
2009-12-16, 02:30:05,VALID,917.949,VALID,0,VALID,97.4959,VALID,0,VALID,19.6038,VALID,137,VALID,0.626953,
2009-12-16, 02:31:05,VALID,917.936,VALID,0,VALID,97.5492,VALID,0,VALID,19.5828,VALID,137,VALID,0.558203,
2009-12-16, 02:32:05,VALID,917.961,VALID,0,VALID,97.5035,VALID,0,VALID,19.5648,VALID,137,VALID,0.508203,
2009-12-16, 02:33:05,VALID,917.922,VALID,0,VALID,97.5187,VALID,0,VALID,19.5438,VALID,137,VALID,0.519141,
2009-12-16, 02:34:05,VALID,917.953,VALID,0,VALID,97.5569,VALID,0,VALID,19.5243,VALID,137,VALID,0.487891,
2009-12-16, 02:35:05,VALID,917.952,VALID,0,VALID,97.5645,VALID,0,VALID,19.5243,VALID,137,VALID,0.367969,
2009-12-16, 02:36:05,VALID,917.921,VALID,0,VALID,97.5416,VALID,0,VALID,19.5243,VALID,137,VALID,0.332422,
2009-12-16, 02:37:05,VALID,917.937,VALID,0,VALID,97.5416,VALID,0,VALID,19.5048,VALID,137,VALID,0.336719,
2009-12-16, 02:38:05,VALID,917.927,VALID,0,VALID,97.595,VALID,0,VALID,19.5048,VALID,137,VALID,0.0683594,
2009-12-16, 02:39:05,VALID,917.888,VALID,0,VALID,97.5873,VALID,0.107441,VALID,19.5243,VALID,137,VALID,0.0015625,
2009-12-16, 02:40:05,VALID,917.889,VALID,0,VALID,97.6026,VALID,0,VALID,19.5243,VALID,137,VALID,0,
2009-12-16, 02:41:05,VALID,917.881,VALID,0,VALID,97.595,VALID,0,VALID,19.5243,VALID,137,VALID,0.615625,
2009-12-16, 02:42:05,VALID,917.857,VALID,0,VALID,97.6255,VALID,0,VALID,19.5843,VALID,137,VALID,0.608984,
2009-12-16, 02:43:05,VALID,917.845,VALID,0,VALID,97.5721,VALID,0,VALID,19.5438,VALID,137,VALID,0.55,
2009-12-16, 02:44:05,VALID,917.831,VALID,0,VALID,97.5645,VALID,0.107441,VALID,19.5048,VALID,137,VALID,0.625781,
2009-12-16, 02:45:05,VALID,917.805,VALID,0,VALID,97.5873,VALID,0,VALID,19.5048,VALID,137,VALID,0.546094,
2009-12-16, 02:46:05,VALID,917.805,VALID,0,VALID,97.595,VALID,0,VALID,19.5063,VALID,137,VALID,0.607422,
2009-12-16, 02:47:05,VALID,917.797,VALID,0,VALID,97.6178,VALID,0,VALID,19.4853,VALID,137,VALID,0.480078,
2009-12-16, 02:48:05,VALID,917.768,VALID,0,VALID,97.6102,VALID,0,VALID,19.4853,VALID,137,VALID,0.493359,
2009-12-16, 02:49:05,VALID,917.756,VALID,0,VALID,97.6026,VALID,0,VALID,19.4868,VALID,137,VALID,0.651953,
2009-12-16, 02:50:05,VALID,917.729,VALID,0,VALID,97.6026,VALID,0,VALID,19.5063,VALID,137,VALID,0.701953,
2009-12-16, 02:51:05,VALID,917.743,VALID,0,VALID,97.6026,VALID,0,VALID,19.4868,VALID,137,VALID,0.641797,
2009-12-16, 02:52:05,VALID,917.731,VALID,0,VALID,97.6178,VALID,0,VALID,19.4853,VALID,137,VALID,0.7875,
2009-12-16, 02:53:05,VALID,917.721,VALID,0,VALID,97.6255,VALID,0,VALID,19.4853,VALID,137,VALID,0.804688,
2009-12-16, 02:54:05,VALID,917.702,VALID,0,VALID,97.6255,VALID,0,VALID,19.4853,VALID,137,VALID,0.864844,
2009-12-16, 02:55:05,VALID,917.708,VALID,0,VALID,97.6407,VALID,0,VALID,19.5258,VALID,137,VALID,1.00078,
2009-12-16, 02:56:05,VALID,917.691,VALID,0,VALID,97.6178,VALID,0,VALID,19.5063,VALID,137,VALID,0.838672,
2009-12-16, 02:57:05,VALID,917.664,VALID,0,VALID,97.6331,VALID,0,VALID,19.5258,VALID,137,VALID,1.05117,
2009-12-16, 02:58:05,VALID,917.684,VALID,0,VALID,97.6331,VALID,0,VALID,19.5063,VALID,137,VALID,0.867969,
2009-12-16, 02:59:05,VALID,917.634,VALID,0,VALID,97.6255,VALID,0,VALID,19.5258,VALID,137,VALID,0.701953,
2009-12-16, 03:00:05,VALID,917.624,VALID,0,VALID,97.6407,VALID,0,VALID,19.5258,VALID,137,VALID,0.603516,
2009-12-16, 03:01:05,VALID,917.607,VALID,0,VALID,97.6178,VALID,0,VALID,19.4853,VALID,137,VALID,0.548437,
2009-12-16, 03:02:05,VALID,917.628,VALID,0,VALID,97.6178,VALID,0,VALID,19.5258,VALID,137,VALID,0.868359,
2009-12-16, 03:03:05,VALID,917.612,VALID,0,VALID,97.6712,VALID,0,VALID,19.5243,VALID,137,VALID,0.725,
2009-12-16, 03:04:05,VALID,917.604,VALID,0,VALID,97.6483,VALID,0,VALID,19.5453,VALID,137,VALID,0.53125,
2009-12-16, 03:05:05,VALID,917.6,VALID,0,VALID,97.6483,VALID,0,VALID,19.5243,VALID,137,VALID,0.626562,
2009-12-16, 03:06:05,VALID,917.609,VALID,0,VALID,97.6331,VALID,0,VALID,19.5438,VALID,137,VALID,0.510156,
2009-12-16, 03:07:05,VALID,917.587,VALID,0,VALID,97.6178,VALID,0,VALID,19.5453,VALID,137,VALID,0.424609,
2009-12-16, 03:08:05,VALID,917.597,VALID,0,VALID,97.6178,VALID,0,VALID,19.5258,VALID,137,VALID,0.488281,
2009-12-16, 03:09:05,VALID,917.632,VALID,0,VALID,97.6255,VALID,0,VALID,19.5063,VALID,137,VALID,0.671875,
2009-12-16, 03:10:05,VALID,917.611,VALID,0,VALID,97.6255,VALID,0,VALID,19.5063,VALID,137,VALID,0.80625,
2009-12-16, 03:11:05,VALID,917.589,VALID,0,VALID,97.6178,VALID,0,VALID,19.5063,VALID,137,VALID,0.267969,
2009-12-16, 03:12:05,VALID,917.59,VALID,0,VALID,97.6026,VALID,0,VALID,19.4463,VALID,137,VALID,0.352734,
2009-12-16, 03:13:05,VALID,917.638,VALID,0,VALID,97.6178,VALID,0,VALID,19.4673,VALID,137,VALID,0.520703,
2009-12-16, 03:14:05,VALID,917.612,VALID,0,VALID,97.6178,VALID,0,VALID,19.4673,VALID,137,VALID,0.452734,
2009-12-16, 03:15:05,VALID,917.597,VALID,0,VALID,97.6483,VALID,0,VALID,19.4673,VALID,137,VALID,0.763281,
2009-12-16, 03:16:05,VALID,917.584,VALID,0,VALID,97.6178,VALID,0,VALID,19.4463,VALID,137,VALID,0.739062,
2009-12-16, 03:17:05,VALID,917.603,VALID,0,VALID,97.6102,VALID,0,VALID,19.4478,VALID,137,VALID,0.778516,
2009-12-16, 03:18:05,VALID,917.589,VALID,0,VALID,97.6178,VALID,0,VALID,19.4478,VALID,137,VALID,0.610156,
2009-12-16, 03:19:05,VALID,917.57,VALID,0,VALID,97.6178,VALID,0,VALID,19.4088,VALID,137,VALID,0.661719,
2009-12-16, 03:20:05,VALID,917.566,VALID,0,VALID,97.6026,VALID,0,VALID,19.3879,VALID,137,VALID,0.560156,
2009-12-16, 03:21:05,VALID,917.563,VALID,0,VALID,97.595,VALID,0,VALID,19.3893,VALID,137,VALID,0.505078,
2009-12-16, 03:22:05,VALID,917.579,VALID,0,VALID,97.5721,VALID,0,VALID,19.3698,VALID,137,VALID,0.589844,
2009-12-16, 03:23:05,VALID,917.553,VALID,0,VALID,97.534,VALID,0,VALID,19.3099,VALID,137,VALID,0.223828,
2009-12-16, 03:24:05,VALID,917.557,VALID,0,VALID,97.6102,VALID,0,VALID,19.3099,VALID,137,VALID,0.727734,
2009-12-16, 03:25:05,VALID,917.56,VALID,0,VALID,97.6712,VALID,0,VALID,19.3489,VALID,137,VALID,0.742969,
2009-12-16, 03:26:05,VALID,917.559,VALID,0,VALID,97.6483,VALID,0,VALID,19.3489,VALID,137,VALID,0.785547,
2009-12-16, 03:27:05,VALID,917.565,VALID,0,VALID,97.6331,VALID,0,VALID,19.3698,VALID,137,VALID,0.914063,
2009-12-16, 03:28:05,VALID,917.608,VALID,0,VALID,97.6331,VALID,0,VALID,19.3698,VALID,137,VALID,0.755078,
2009-12-16, 03:29:05,VALID,917.586,VALID,0,VALID,97.6178,VALID,0,VALID,19.3503,VALID,137,VALID,0.617578,
2009-12-16, 03:30:05,VALID,917.576,VALID,0,VALID,97.6483,VALID,0,VALID,19.3308,VALID,137,VALID,0.858594,
2009-12-16, 03:31:05,VALID,917.585,VALID,0,VALID,97.5873,VALID,0,VALID,19.2889,VALID,137,VALID,0.800781,
2009-12-16, 03:32:05,VALID,917.57,VALID,0,VALID,97.4959,VALID,0.107441,VALID,19.2124,VALID,136,VALID,0.740625,
2009-12-16, 03:33:05,VALID,917.571,VALID,0,VALID,97.534,VALID,0.107441,VALID,19.1734,VALID,136,VALID,0.573828,
2009-12-16, 03:34:05,VALID,917.583,VALID,0,VALID,97.595,VALID,0.107441,VALID,19.1734,VALID,136,VALID,0.607031,
2009-12-16, 03:35:05,VALID,917.573,VALID,0,VALID,97.6483,VALID,0.107441,VALID,19.1929,VALID,136,VALID,0.442969,
2009-12-16, 03:36:05,VALID,917.561,VALID,0,VALID,97.595,VALID,0.107441,VALID,19.1734,VALID,136,VALID,0.2875,
2009-12-16, 03:37:05,VALID,917.549,VALID,0,VALID,97.5569,VALID,0.107441,VALID,19.1135,VALID,136,VALID,0.432813,
2009-12-16, 03:38:05,VALID,917.539,VALID,0,VALID,97.6636,VALID,0,VALID,19.1344,VALID,136,VALID,0.667188,
2009-12-16, 03:39:05,VALID,917.539,VALID,0,VALID,97.5797,VALID,0.107441,VALID,19.094,VALID,136,VALID,0.194922,
2009-12-16, 03:40:05,VALID,917.543,VALID,0,VALID,97.656,VALID,0.107441,VALID,19.1149,VALID,136,VALID,0.302344,
2009-12-16, 03:41:05,VALID,917.53,VALID,0,VALID,97.6712,VALID,0.107441,VALID,19.1344,VALID,136,VALID,0.283203,
2009-12-16, 03:42:05,VALID,917.561,VALID,0,VALID,97.5797,VALID,0,VALID,19.0759,VALID,136,VALID,0,
2009-12-16, 03:43:05,VALID,917.536,VALID,0,VALID,97.6178,VALID,0.107441,VALID,19.0564,VALID,136,VALID,0,
2009-12-16, 03:44:05,VALID,917.52,VALID,0,VALID,97.7627,VALID,0.107441,VALID,19.1539,VALID,136,VALID,0.529297,
2009-12-16, 03:45:05,VALID,917.537,VALID,0,VALID,97.6483,VALID,0.107441,VALID,19.094,VALID,136,VALID,0.407422,